Simultaneous Nadir Overpasses (SNOs) Predictions

Prediction of SNOs between GOES-15 and METOP-B Satellite Orbit:

Table of predicted SNOs for the next 14.0 days since TLE Epoch: 10/28/2023
Index Date Time (GOES-15) GOES-15 Lat,Lon METOP-B Lat,Lon Distance(km) Time Diff (sec)
1 10/29/2023 05:02:10 -0.30, 66.79 -0.28, 66.71 9.64 80
2 10/30/2023 17:21:15 0.30, 65.30 -0.44, 62.04 371.30 80
3 10/31/2023 16:58:00 0.29, 64.25 0.92, 66.98 311.19 80
4 11/02/2023 05:19:37 -0.29, 62.52 -0.26, 62.33 20.75 80
5 11/03/2023 17:38:42 0.28, 61.02 -0.44, 57.66 382.19 80
6 11/04/2023 17:15:26 0.28, 59.97 0.87, 62.61 300.04 80
7 11/06/2023 05:37:03 -0.27, 58.25 -0.21, 57.96 32.62 80
8 11/07/2023 17:56:08 0.27, 56.75 -0.47, 53.29 393.55 80
9 11/08/2023 17:32:52 0.27, 55.71 0.84, 58.24 288.42 80
10 11/10/2023 05:54:29 -0.27, 53.99 -0.20, 53.59 45.33 80
